User: anonymous   Login
Location: Caltech
(34.1382°N, 118.1253°W)
Time: 04:08:32
(UTC-07:00)
Language:

JAS-1B - Orbit

View from above orbital plane
View from above orbital plane
View from above satellite
View from above satellite

Ground track
Ground track

The orbit data is extracted from the following two-line orbital elements,

1 20480U 90013C   16145.48964523 -.00000044  00000-0 -27142-4 0  9995
2 20480  99.0236 346.2499 0540121 191.9261 198.5672 12.83411236231863
Epoch (UTC): 24 May 2016 11:45:05
Eccentricity: 0.0540121
inclination: 99.0236°
perigee height: 911 km
apogee height: 1744 km
right ascension of ascending node: 346.2499°
argument of perigee: 191.9261°
revolutions per day: 12.83411236
mean anomaly at epoch: 198.5672°
orbit number at epoch: 23186

The dashed part of the orbit path shows where the satellite is in the earth's shadow,  

DLR